User: anonymous   Login
Location: Albany
(35.0000°S, 118.0000°E)
Time: 22:59:09
(UTC-04:00)
Language:

CZ-4B R/B - Orbit

View from above orbital plane
View from above orbital plane
View from above satellite
View from above satellite

Ground track
Ground track

The orbit data is extracted from the following two-line orbital elements,

1 33410U 08053C   17147.46661833 +.00001033 +00000-0 +80451-4 0  9993
2 33410 097.7287 118.2486 0118196 260.3682 098.4171 14.98277839467461
Epoch (UTC): 27 May 2017 11:11:55
Eccentricity: 0.0118196
inclination: 97.7287°
perigee height: 490 km
apogee height: 654 km
right ascension of ascending node: 118.2486°
argument of perigee: 260.3682°
revolutions per day: 14.98277839
mean anomaly at epoch: 98.4171°
orbit number at epoch: 46746

The dashed part of the orbit path shows where the satellite is in the earth's shadow,  

DLR